DW7267 Weather Reports


Display with metric or nautical units.
time (UTC)temp
F
wind
direction
speed
MPH
gust
MPH
rain 1hr
in
rain 24hr
in
rain mn
in
humidity
%
barometer
mb
20260503202206 69 251 3.0 10.0 0.00 0.00 0.00 36 1017.4
20260503201706 69 237 4.0 12.0 0.00 0.00 0.00 34 1017.4
20260503201438 70 115 5.0 12.0 0.00 0.00 0.00 33 1017.5
20260503200706 71 117 5.0 12.0 0.00 0.00 0.00 33 1017.5
20260503200204 71 76 5.0 12.0 0.00 0.00 0.00 33 1017.7
20260503195704 71 212 3.0 9.0 0.00 0.00 0.00 33 1017.8
20260503195204 71 105 3.0 10.0 0.00 0.00 0.00 34 1017.7
20260503194703 71 88 4.0 10.0 0.00 0.00 0.00 34 1017.8
20260503194201 71 76 4.0 9.0 0.00 0.00 0.00 32 1018.0
20260503193700 71 230 4.0 9.0 0.00 0.00 0.00 35 1017.9
20260503193158 71 151 4.0 17.0 0.00 0.00 0.00 36 1017.9
20260503192659 70 119 4.0 17.0 0.00 0.00 0.00 37 1018.0
20260503192158 71 104 4.0 18.0 0.00 0.00 0.00 36 1018.1
20260503191927 71 213 4.0 18.0 0.00 0.00 0.00 37 1018.1
20260503191154 70 174 5.0 10.0 0.00 0.00 0.00 39 1018.1
20260503190654 69 137 6.0 11.0 0.00 0.00 0.00 37 1018.3
20260503190426 69 98 6.0 11.0 0.00 0.00 0.00 37 1018.3
20260503185653 70 88 5.0 14.0 0.00 0.00 0.00 36 1018.4
20260503185152 70 98 5.0 14.0 0.00 0.00 0.00 38 1018.3
20260503184922 69 141 6.0 14.0 0.00 0.00 0.00 40 1018.5
20260503184153 69 137 6.0 14.0 0.00 0.00 0.00 40 1018.4
20260503183651 69 74 6.0 14.0 0.00 0.00 0.00 40 1018.5
20260503183151 68 140 6.0 14.0 0.00 0.00 0.00 40 1018.4
20260503182649 68 77 6.0 14.0 0.00 0.00 0.00 40 1018.6
20260503182147 67 167 8.0 15.0 0.00 0.00 0.00 42 1018.6
20260503181646 67 151 8.0 17.0 0.00 0.00 0.00 42 1018.6
20260503181147 67 119 8.0 19.0 0.00 0.00 0.00 43 1018.8
20260503180639 67 80 8.0 19.0 0.00 0.00 0.00 42 1018.8
20260503180139 67 136 7.0 19.0 0.00 0.00 0.00 42 1019.0
20260503175907 67 76 8.0 19.0 0.00 0.00 0.00 41 1019.1
20260503175135 67 188 8.0 17.0 0.00 0.00 0.00 43 1019.1
20260503174634 66 157 9.0 17.0 0.00 0.00 0.00 43 1019.2
20260503174404 66 91 8.0 17.0 0.00 0.00 0.00 43 1019.2
20260503173632 66 105 8.0 15.0 0.00 0.00 0.00 45 1019.1
20260503173405 65 92 9.0 16.0 0.00 0.00 0.00 44 1019.3
20260503172631 65 144 9.0 18.0 0.00 0.00 0.00 45 1019.3
20260503172131 66 151 9.0 18.0 0.00 0.00 0.00 43 1019.4
20260503171901 66 143 8.0 17.0 0.00 0.00 0.00 45 1019.4
20260503171131 66 123 8.0 16.0 0.00 0.00 0.00 44 1019.3
20260503170632 65 144 8.0 16.0 0.00 0.00 0.00 46 1019.3
20260503170128 65 110 7.0 14.0 0.00 0.00 0.00 45 1019.3
20260503160120 61 85 7.0 16.0 0.00 0.00 0.00 51 1019.3
20260503150617 58 94 5.0 13.0 0.00 0.00 0.00 53 1019.4
20260503150116 58 66 4.0 13.0 0.00 0.00 0.00 55 1019.4
20260503140107 56 113 6.0 17.0 0.00 0.00 0.00 55 1019.1
20260503131331 56 87 5.0 11.0 0.00 0.00 0.00 54 1019.0
20260503130601 56 174 4.0 10.0 0.00 0.00 0.00 54 1018.8
20260503110547 56 143 4.0 11.0 0.00 0.00 0.00 52 1018.8
20260503081027 49 68 2.0 6.0 0.00 0.00 0.00 53 1019.4
20260503080758 46 74 1.0 5.0 0.00 0.00 0.00 58 1019.4
20260503072525 45 137 0.0 2.0 0.00 0.00 0.00 59 1019.6
20260503072020 46 200 0.0 3.0 0.00 0.00 0.00 58 1019.6
20260503071752 46 200 0.0 3.0 0.00 0.00 0.00 56 1019.7
20260503071252 47 200 1.0 4.0 0.00 0.00 0.00 55 1019.8
20260503070520 48 162 2.0 4.0 0.00 0.00 0.00 54 1019.8
20260503055006 47 123 0.0 3.0 0.00 0.00 0.00 57 1019.7
20260503054459 47 123 0.0 3.0 0.00 0.00 0.00 57 1019.8
20260503053957 47 123 0.0 2.0 0.00 0.00 0.00 57 1019.7
20260503053453 47 134 0.0 0.0 0.00 0.00 0.00 56 1019.8
20260503052947 48 134 0.0 0.0 0.00 0.00 0.00 55 1019.7
20260503052443 48 164 0.0 0.0 0.00 0.00 0.00 55 1019.7
20260503051939 49 164 0.0 1.0 0.00 0.00 0.00 55 1019.6
20260503051433 49 164 0.0 1.0 0.00 0.00 0.00 54 1019.4
20260503050931 49 164 0.0 2.0 0.00 0.00 0.00 54 1019.3
20260503050425 49 164 0.0 2.0 0.00 0.00 0.00 54 1019.3
20260503045923 49 164 0.0 2.0 0.00 0.00 0.00 53 1019.3
20260503045417 49 164 0.0 2.0 0.00 0.00 0.00 53 1019.3
20260503044916 50 127 0.0 2.0 0.00 0.00 0.00 53 1019.2
20260503044410 50 127 0.0 2.0 0.00 0.00 0.00 52 1019.2
20260503044136 50 127 0.0 2.0 0.00 0.00 0.00 52 1019.3
20260503043359 50 102 0.0 2.0 0.00 0.00 0.00 52 1019.3
20260503042346 51 151 0.0 1.0 0.00 0.00 0.00 52 1019.1
20260503041841 51 152 0.0 1.0 0.00 0.00 0.00 51 1019.0
20260503041339 52 152 0.0 1.0 0.00 0.00 0.00 51 1019.0
20260503040835 52 151 0.0 1.0 0.00 0.00 0.00 50 1019.0
20260503040601 53 152 0.0 1.0 0.00 0.00 0.00 49 1018.8
20260503040059 53 152 0.0 1.0 0.00 0.00 0.00 49 1018.7
20260503035326 53 152 0.0 1.0 0.00 0.00 0.00 48 1018.6
20260503034825 53 152 0.0 0.0 0.00 0.00 0.00 47 1018.5
20260503034323 54 151 0.0 1.0 0.00 0.00 0.00 46 1018.5
20260503033824 54 151 0.0 1.0 0.00 0.00 0.00 46 1018.5
20260503033325 54 151 0.0 1.0 0.00 0.00 0.00 46 1018.5
20260503032821 55 152 0.0 1.0 0.00 0.00 0.00 46 1018.5
20260503032323 55 152 0.0 0.0 0.00 0.00 0.00 44 1018.4
20260503031820 55 152 0.0 0.0 0.00 0.00 0.00 43 1018.4
20260503031552 56 152 0.0 1.0 0.00 0.00 0.00 44 1018.4
20260503030821 56 151 0.0 1.0 0.00 0.00 0.00 43 1018.3
20260503030318 56 151 0.0 0.0 0.00 0.00 0.00 42 1018.3
20260503025818 56 152 0.0 0.0 0.00 0.00 0.00 42 1018.1
20260503025319 57 151 0.0 0.0 0.00 0.00 0.00 41 1018.1
20260503025050 58 152 0.0 0.0 0.00 0.00 0.00 41 1018.1
20260503024315 58 152 0.0 0.0 0.00 0.00 0.00 39 1018.0
20260503023817 59 151 0.0 0.0 0.00 0.00 0.00 39 1018.0
20260503023548 59 151 0.0 0.0 0.00 0.00 0.00 38 1017.9
20260503022817 60 151 0.0 0.0 0.00 0.00 0.00 37 1017.9
20260503022315 60 151 0.0 0.0 0.00 0.00 0.00 36 1017.8
20260503022047 61 152 0.0 0.0 0.00 0.00 0.00 35 1017.8
20260503021311 62 152 0.0 0.0 0.00 0.00 0.00 34 1017.8
20260503020813 62 151 0.0 1.0 0.00 0.00 0.00 33 1017.7
20260503020313 63 152 0.0 1.0 0.00 0.00 0.00 33 1017.8
20260503015810 64 152 0.0 4.0 0.00 0.00 0.00 32 1017.7
20260503015309 65 152 0.0 4.0 0.00 0.00 0.00 30 1017.7
20260503014809 65 151 1.0 4.0 0.00 0.00 0.00 30 1017.7
20260503014306 66 152 1.0 4.0 0.00 0.00 0.00 30 1017.7
20260503013805 66 133 0.0 5.0 0.00 0.00 0.00 30 1017.8
20260503013307 67 156 1.0 5.0 0.00 0.00 0.00 30 1017.7
20260503013036 67 155 1.0 5.0 0.00 0.00 0.00 28 1017.7
20260503012305 67 113 1.0 5.0 0.00 0.00 0.00 29 1017.7
20260503012035 68 145 1.0 5.0 0.00 0.00 0.00 28 1017.5
20260503011259 68 143 1.0 8.0 0.00 0.00 0.00 28 1017.5
20260503010759 68 233 1.0 8.0 0.00 0.00 0.00 28 1017.5
20260503010531 68 146 2.0 8.0 0.00 0.00 0.00 28 1017.5
20260503005759 69 240 2.0 8.0 0.00 0.00 0.00 27 1017.7
20260503005257 69 75 2.0 5.0 0.00 0.00 0.00 27 1017.5
20260503004758 69 80 2.0 6.0 0.00 0.00 0.00 29 1017.7
20260503004254 68 133 2.0 6.0 0.00 0.00 0.00 29 1017.8
20260503004027 68 79 1.0 6.0 0.00 0.00 0.00 28 1017.8
20260503003255 68 168 1.0 6.0 0.00 0.00 0.00 29 1017.8
20260503002753 68 138 2.0 6.0 0.00 0.00 0.00 30 1017.7
20260503002521 68 108 3.0 7.0 0.00 0.00 0.00 29 1017.7
20260503001751 68 161 2.0 7.0 0.00 0.00 0.00 29 1017.7
20260503001247 68 95 1.0 6.0 0.00 0.00 0.00 30 1017.7
20260503000747 67 141 1.0 6.0 0.00 0.00 0.00 30 1017.7
20260503000248 67 158 2.0 7.0 0.00 0.00 0.00 30 1017.7
20260503000019 67 158 3.0 7.0 0.00 0.00 0.00 30 1017.7
20260502235245 67 143 2.0 7.0 0.00 0.00 0.00 31 1017.7
20260502234745 67 226 2.0 7.0 0.00 0.00 0.00 30 1017.5
20260502234243 67 155 2.0 7.0 0.00 0.00 0.00 31 1017.5
20260502233742 67 113 2.0 7.0 0.00 0.00 0.00 30 1017.5
20260502233244 67 123 1.0 5.0 0.00 0.00 0.00 32 1017.7
20260502232741 68 108 2.0 5.0 0.00 0.00 0.00 30 1017.5
20260502232239 68 115 1.0 5.0 0.00 0.00 0.00 30 1017.7
20260502231741 68 135 1.0 7.0 0.00 0.00 0.00 30 1017.8
20260502231237 68 107 2.0 7.0 0.00 0.00 0.00 30 1017.8
20260502230736 68 72 4.0 9.0 0.00 0.00 0.00 30 1017.8
20260502230235 69 117 5.0 12.0 0.00 0.00 0.00 29 1017.8
20260502230006 70 95 6.0 12.0 0.00 0.00 0.00 28 1017.8
20260502225234 71 96 4.0 12.0 0.00 0.00 0.00 28 1017.8
20260502224733 71 149 3.0 10.0 0.00 0.00 0.00 28 1017.8
20260502224235 71 98 3.0 10.0 0.00 0.00 0.00 27 1017.8
20260502223729 71 87 1.0 10.0 0.00 0.00 0.00 27 1017.9
20260502223228 70 160 2.0 7.0 0.00 0.00 0.00 29 1017.9
20260502222731 69 291 2.0 7.0 0.00 0.00 0.00 29 1017.9
20260502222229 70 87 2.0 7.0 0.00 0.00 0.00 27 1017.9
20260502221729 68 88 4.0 9.0 0.00 0.00 0.00 30 1018.0
20260502221229 67 346 6.0 9.0 0.00 0.00 0.00 29 1018.1
20260502220723 68 84 3.0 9.0 0.00 0.00 0.00 28 1018.3
20260502220224 69 72 2.0 9.0 0.00 0.00 0.00 28 1018.4
20260502215723 70 102 2.0 11.0 0.00 0.00 0.00 28 1018.4
20260502215225 70 202 3.0 11.0 0.00 0.00 0.00 27 1018.4
20260502214953 70 134 4.0 11.0 0.00 0.00 0.00 27 1018.5
20260502214456 71 160 4.0 11.0 0.00 0.00 0.00 26 1018.6
20260502213718 71 77 4.0 10.0 0.00 0.00 0.00 27 1018.7
20260502213218 70 147 3.0 10.0 0.00 0.00 0.00 27 1018.6
20260502212718 70 272 4.0 10.0 0.00 0.00 0.00 30 1018.7
20260502212219 70 96 4.0 10.0 0.00 0.00 0.00 27 1018.8
20260502211949 70 154 3.0 11.0 0.00 0.00 0.00 30 1019.0
20260502211217 69 71 3.0 11.0 0.00 0.00 0.00 30 1019.0
20260502210713 68 97 3.0 10.0 0.00 0.00 0.00 28 1019.1
20260502210213 69 200 3.0 8.0 0.00 0.00 0.00 28 1019.3
20260502205944 69 53 4.0 9.0 0.00 0.00 0.00 29 1019.3
20260502205211 69 88 2.0 9.0 0.00 0.00 0.00 29 1019.4
20260502204942 68 89 2.0 11.0 0.00 0.00 0.00 30 1019.4
20260502204210 68 73 4.0 10.0 0.00 0.00 0.00 31 1019.4
20260502203707 67 79 6.0 11.0 0.00 0.00 0.00 31 1019.6
20260502202706 68 103 3.0 12.0 0.00 0.00 0.00 32 1019.7